GEFSCGP_500_meanwind_054.txt.gz
Wind_Speed
8 6 4 8 12 15 15 13 13 15 22 26 24 23 23 29 33 33 35 36 37 38 39 39 38 37 40 40 39 38 37 37 37 36 34 34 33 31 30 30 27 26 25 24
5 7 9 11 11 11 10 12 13 15 20 25 28 26 24 29 33 34 36 33 35 39 38 38 38 38 38 39 38 37 38 39 38 37 36 35 34 33 32 30 28 26 25 24
4 8 9 7 6 5 7 9 13 16 19 19 19 19 19 25 30 31 31 33 32 33 35 36 35 35 37 37 36 37 39 39 38 37 36 35 34 33 32 29 27 26 25 25
4 8 8 6 6 6 8 13 15 16 17 18 17 19 20 25 30 31 30 27 26 29 31 32 33 35 36 36 37 39 38 38 37 37 37 34 33 33 33 30 28 27 27 26
4 7 8 7 9 10 12 14 14 13 15 14 15 18 20 25 28 29 26 26 28 28 31 32 33 33 34 36 37 37 37 36 37 36 36 35 34 34 32 31 29 28 28 28
3 6 7 7 9 10 10 9 8 11 15 17 18 18 21 25 25 26 28 30 32 31 31 30 31 32 33 34 35 35 35 36 37 38 37 36 36 35 35 33 32 30 30 30
3 4 6 8 8 10 11 10 12 16 20 19 14 12 18 21 23 25 28 29 30 30 30 30 31 32 33 34 36 37 38 38 39 40 39 39 38 38 38 37 36 34 34 34
8 5 4 8 10 11 10 9 12 16 17 21 20 16 22 20 20 23 25 26 29 30 31 32 33 34 35 37 39 40 42 43 43 44 44 44 43 42 42 41 40 39 38 38
6 5 7 10 10 9 9 7 9 14 14 13 16 25 25 24 23 23 24 29 32 34 35 37 39 40 41 43 44 46 47 48 49 49 50 50 50 49 48 47 46 45 44 43
7 7 6 8 8 10 12 12 13 14 15 15 16 27 33 33 32 29 31 33 36 38 40 42 43 44 45 47 49 50 52 53 54 55 56 56 56 56 55 54 53 52 50 48
8 7 6 8 9 10 12 13 15 17 18 20 22 27 32 34 33 34 37 39 40 43 45 47 48 49 50 51 53 54 55 56 58 59 60 60 61 61 61 60 59 58 56 54
8 9 8 8 12 12 12 16 19 20 21 21 23 30 32 34 36 38 41 43 46 48 49 51 52 53 54 55 56 57 58 59 60 61 62 63 64 65 65 65 64 63 62 60
10 10 9 11 15 17 18 19 21 23 24 25 27 32 35 37 39 42 45 47 50 52 53 54 56 57 58 59 60 61 61 62 63 64 64 65 66 67 67 68 68 68 67 66
11 12 12 12 12 15 18 18 20 24 27 28 30 36 40 41 43 46 49 51 53 56 57 58 59 60 62 63 63 64 64 65 66 67 68 68 69 69 70 70 70 71 71 70
12 13 13 13 13 14 16 18 21 25 28 31 34 38 43 44 47 50 53 55 58 60 61 62 64 65 66 67 67 67 68 69 70 70 71 71 72 72 73 73 74 74 74 74
14 14 14 14 14 15 18 19 23 28 32 35 37 41 44 47 50 53 56 59 61 63 65 67 68 69 69 70 70 70 70 69 68 67 66 65 66 67 68 69 71 72 73 74
14 15 16 16 15 18 21 24 28 32 36 39 42 45 48 51 53 55 58 62 65 67 68 69 70 71 71 71 70 68 65 61 58 55 53 53 53 53 54 56 58 60 63 65
14 16 18 19 20 21 24 27 31 34 39 42 44 47 50 53 55 57 61 65 67 69 70 70 70 70 68 64 60 56 52 49 47 44 43 42 41 40 40 41 42 44 46 49
16 18 20 22 22 27 30 31 35 39 43 44 47 51 54 57 59 60 63 66 68 69 69 67 65 62 56 51 47 44 41 39 38 37 36 35 35 34 33 33 33 35 36 37
21 23 24 26 27 31 34 36 39 42 47 50 53 56 59 61 63 64 66 68 69 67 64 61 56 51 47 43 41 38 36 36 36 36 35 34 33 32 31 30 30 30 31 31
21 24 26 28 30 35 36 40 42 44 48 51 54 57 60 62 65 67 68 67 65 61 57 53 49 46 43 41 39 38 37 37 37 37 35 34 33 32 31 30 29 29 29 29
21 25 28 30 32 36 39 41 44 46 50 54 57 60 63 65 67 68 66 63 59 55 51 48 46 44 42 41 40 40 39 39 38 37 36 35 34 33 32 30 29 28 28 27
23 25 29 31 34 36 40 43 47 50 54 57 60 63 66 68 68 66 62 58 54 51 48 46 46 45 44 44 43 42 41 40 40 38 37 36 35 34 32 30 29 27 26 26
28 27 30 33 36 39 44 47 50 53 57 59 62 65 68 69 66 62 58 55 52 49 48 48 48 47 46 45 43 43 42 42 41 40 38 36 35 33 31 30 28 27 25 24
27 30 33 36 39 42 46 49 52 55 58 61 64 67 68 67 63 59 56 53 51 50 49 49 49 48 46 45 44 43 43 42 41 39 37 35 34 32 30 29 27 26 24 22
29 32 35 38 42 45 48 50 54 57 60 62 65 67 67 64 60 57 54 52 51 50 50 50 49 49 48 47 46 45 44 42 41 39 36 33 32 30 28 26 25 24 23 21

GEFSCGP_500_meanwind_060.txt.gz
Wind_Speed
13 13 13 12 12 11 12 12 13 13 14 15 18 20 22 25 28 31 33 36 39 41 42 42 42 41 36 33 33 28 29 31 29 26 27 28 28 27 28 27 27 27 27 26
12 12 10 9 9 9 12 14 15 16 18 20 22 25 26 28 31 33 36 39 40 40 41 40 38 37 35 32 29 28 28 28 25 25 27 28 28 27 26 26 26 27 26 26
10 8 7 8 9 10 12 15 17 20 20 22 24 26 29 31 33 35 37 37 36 37 36 36 36 34 33 31 30 30 28 28 26 27 29 29 28 27 26 26 25 26 27 26
6 7 7 7 7 9 12 15 17 19 21 22 23 25 27 29 31 33 33 34 35 34 33 32 31 30 30 30 30 30 29 28 28 28 30 29 28 28 28 27 27 28 27 27
7 7 7 6 6 8 11 14 15 17 18 20 21 24 26 27 28 29 30 30 32 31 31 30 29 29 29 30 30 30 30 30 30 30 31 31 30 31 31 31 31 30 30 29
5 6 5 4 5 7 10 12 12 13 14 16 17 20 21 22 24 24 25 26 27 27 28 28 29 30 31 32 32 33 33 34 35 36 35 35 36 36 36 35 35 35 34 34
4 4 5 5 5 7 10 11 11 10 11 13 15 18 18 20 21 22 23 24 24 26 28 29 31 33 35 36 37 38 39 39 40 40 41 41 42 42 42 41 40 40 39 39
6 2 3 5 6 7 9 10 11 12 13 15 16 17 19 21 21 23 25 25 25 27 29 32 35 37 39 41 42 43 44 45 46 47 47 48 48 48 47 47 47 46 46 45
8 5 4 6 7 9 11 12 14 15 16 18 18 19 21 23 25 27 29 29 31 33 35 36 39 42 44 45 46 47 48 49 50 51 52 53 53 53 53 52 52 51 50 50
10 8 7 7 9 11 14 15 15 17 19 19 21 22 24 26 29 32 33 35 36 39 40 43 45 47 49 50 51 52 52 53 54 55 55 56 57 58 58 58 57 56 56 55
9 8 9 10 10 11 14 15 16 17 19 22 25 26 28 30 32 35 37 39 41 43 45 48 49 51 53 54 55 56 57 58 59 59 60 60 60 61 61 61 61 61 61 60
9 10 11 12 13 15 16 16 17 18 20 23 26 30 31 34 37 39 41 43 46 48 50 52 54 55 57 58 59 60 61 63 63 64 64 64 64 64 64 64 64 64 64 64
10 11 12 13 14 16 18 18 18 19 22 25 29 32 35 38 41 43 45 48 50 52 54 56 58 59 61 63 64 65 66 66 66 66 66 66 66 66 66 66 66 66 66 66
11 11 12 13 15 16 18 17 18 21 23 27 31 34 37 40 43 45 48 51 54 56 58 60 62 63 65 67 68 68 68 67 66 65 64 63 63 63 63 63 63 64 65 66
10 10 12 14 16 17 18 19 20 22 25 29 33 36 38 41 44 47 51 54 56 59 61 63 66 67 68 68 67 66 65 64 62 60 59 57 56 55 54 54 54 55 57 58
9 10 12 14 17 18 18 19 21 24 27 30 33 36 39 43 46 49 53 56 59 61 64 66 67 67 66 65 64 63 60 57 55 53 51 49 47 45 43 42 42 43 44 46
10 11 12 14 17 18 18 20 23 26 28 31 35 39 42 45 48 52 55 59 62 64 65 66 65 64 63 61 59 56 53 50 48 46 44 42 40 39 37 36 34 34 34 35
10 12 14 16 17 18 20 23 27 30 32 35 39 43 46 49 51 54 58 61 63 64 63 62 61 60 58 56 53 51 49 47 46 44 43 41 40 38 36 34 33 33 32 32
13 15 17 20 22 23 25 28 31 35 37 39 43 46 49 51 53 54 58 61 62 61 60 60 59 57 55 52 51 49 48 47 46 45 43 42 40 39 37 35 34 33 32 31
17 18 20 23 25 27 28 31 34 38 40 43 46 49 52 54 58 59 60 61 60 60 59 57 55 53 52 51 50 50 49 48 47 45 44 42 40 39 38 37 35 34 32 31
18 20 22 24 26 28 31 33 36 38 42 44 48 52 55 58 61 62 61 60 59 57 55 54 53 52 52 51 51 50 49 49 47 45 43 41 40 39 38 36 35 34 32 30
19 21 23 26 28 30 33 35 38 41 44 48 51 54 57 59 60 60 59 58 57 55 54 54 53 52 52 52 52 51 50 48 46 44 42 40 39 37 36 35 33 32 30 29
20 22 24 27 29 32 34 37 41 44 47 50 53 55 58 60 60 59 58 57 55 54 54 54 54 53 52 53 53 51 50 47 45 41 39 37 36 35 34 33 31 30 29 28
21 23 25 28 30 33 36 39 42 45 48 50 53 56 58 60 59 58 57 56 55 55 54 54 54 53 52 52 51 50 48 44 40 37 34 33 32 31 31 30 29 28 27 26
23 25 27 29 31 34 37 39 41 44 47 50 53 56 58 59 58 58 57 55 55 54 54 54 53 52 51 50 48 46 43 40 36 33 30 27 26 25 26 27 26 26 24 23
24 26 29 30 32 35 37 40 42 45 48 51 54 56 58 58 58 57 56 55 54 53 53 52 51 51 50 49 46 44 40 37 33 29 25 23 20 19 20 21 22 22 21 20

GEFSCGP_500_meanwind_066.txt.gz
Wind_Speed
16 15 16 17 17 18 19 20 20 22 23 24 25 24 23 23 24 25 27 28 30 32 34 36 37 37 38 39 38 37 35 33 33 31 30 26 23 22 23 25 25 25 26 26
13 13 14 15 16 17 18 18 18 19 20 21 21 22 22 23 24 25 27 29 31 34 36 38 39 38 38 37 36 33 33 31 30 29 28 26 25 23 22 21 21 22 23 24
11 12 13 13 14 15 15 15 16 17 18 19 20 21 21 23 24 26 28 30 33 34 35 36 36 36 36 36 33 32 31 30 30 30 29 27 26 24 24 23 23 24 24 24
9 10 11 12 12 12 13 14 15 16 18 19 20 21 21 22 24 26 28 29 30 30 31 31 30 31 33 33 32 31 31 31 31 31 30 30 29 28 27 27 27 27 27 27
7 8 8 9 10 11 11 12 13 14 15 16 17 19 19 21 23 24 24 25 26 28 28 28 29 30 32 32 33 33 33 33 34 34 34 34 33 32 32 31 31 31 30 30
5 6 6 7 8 9 10 11 12 12 13 13 14 16 17 18 20 20 22 23 24 25 25 27 29 30 32 33 35 35 36 37 38 38 38 38 38 38 38 37 36 36 36 36
3 4 5 6 7 8 9 10 11 11 11 12 13 14 15 17 19 21 23 24 25 27 28 30 31 32 34 36 38 39 40 40 41 42 43 43 43 43 43 43 43 42 42 43
3 3 5 6 8 9 10 11 12 13 13 12 13 14 16 18 20 22 24 26 28 29 31 32 34 35 37 38 40 41 42 44 45 46 47 48 48 48 48 48 49 48 48 48
4 4 5 7 9 9 10 12 14 16 15 15 16 16 17 19 22 24 27 29 31 33 34 36 37 38 39 41 42 43 45 46 47 48 49 50 51 52 53 53 54 54 54 54
5 5 6 7 9 10 11 13 14 15 17 18 18 18 20 22 25 28 31 33 35 36 38 39 40 42 43 44 45 46 47 48 49 50 51 52 52 53 55 56 57 58 58 59
7 7 7 9 9 11 12 14 15 17 18 20 21 21 23 26 29 32 34 36 38 39 41 43 45 47 48 49 50 51 52 53 53 53 52 53 53 54 55 56 57 59 60 61
8 9 9 10 10 11 13 14 16 18 19 20 23 25 27 30 32 34 37 39 40 42 45 47 49 51 52 54 55 56 56 56 55 55 54 53 53 52 52 53 53 54 55 58
8 9 10 11 11 12 14 15 17 18 20 22 25 27 30 32 34 36 39 41 43 46 48 51 53 55 56 57 57 57 57 56 57 57 56 54 53 52 50 49 48 47 48 50
9 9 10 11 12 13 14 16 18 20 21 24 26 29 31 33 36 38 41 44 46 48 51 54 56 57 57 57 57 57 57 58 59 58 57 55 54 52 50 48 46 45 44 44
10 11 11 12 13 14 16 17 19 20 23 25 28 30 32 35 38 41 44 46 48 51 54 56 56 56 56 56 56 56 57 57 57 57 57 55 54 52 50 48 46 44 43 42
11 12 13 13 14 15 16 18 20 22 24 27 29 31 34 37 41 44 46 49 51 54 55 55 55 56 56 56 55 55 55 56 57 57 56 55 54 52 50 49 47 45 42 41
12 13 14 14 15 16 18 20 22 24 26 29 32 34 37 39 42 46 49 51 54 56 55 55 55 55 55 56 56 56 56 57 57 57 56 55 54 53 51 49 48 46 44 42
11 13 14 16 17 18 20 22 24 26 28 31 34 37 39 42 44 47 51 54 55 55 54 54 55 55 55 56 56 56 57 57 57 56 55 55 53 52 49 48 46 44 42 41
12 14 16 17 19 21 23 25 27 29 30 33 36 39 41 44 45 47 51 53 54 54 53 54 55 56 56 56 56 57 57 57 56 55 53 51 49 48 46 45 43 41 40 39
13 15 17 19 21 24 25 27 29 32 33 36 39 41 44 47 49 49 51 53 53 53 54 55 56 56 56 56 56 56 56 55 54 52 50 49 47 45 43 41 39 38 38 37
15 17 19 21 23 24 26 28 30 33 36 38 40 42 45 49 51 53 54 54 54 54 54 55 55 56 56 56 56 55 54 53 51 49 48 46 43 42 39 37 35 35 34 33
17 19 20 22 24 26 27 29 31 33 36 38 41 43 46 49 51 52 53 53 53 53 54 55 55 55 55 55 55 54 52 50 48 47 45 42 39 36 33 31 30 30 29 29
19 20 22 24 25 26 28 29 31 33 36 39 42 44 47 49 51 52 53 53 53 53 54 54 54 54 54 54 53 53 51 48 46 44 41 38 34 31 28 25 24 24 25 26
19 21 22 24 25 26 27 29 31 34 37 40 43 46 48 50 51 52 53 53 53 53 53 54 53 53 53 53 52 51 49 47 44 41 38 34 30 27 23 21 19 18 19 21
21 22 22 23 25 26 27 29 32 35 38 41 43 47 49 50 51 53 53 53 53 52 53 53 53 53 53 52 50 49 47 45 42 40 36 32 28 25 20 17 14 13 14 16
22 22 23 24 26 27 29 30 33 36 38 41 44 46 49 50 51 52 52 53 53 52 52 52 52 52 52 51 49 47 46 43 41 38 35 30 26 23 19 14 11 9 10 12

GEFSCGP_500_meanwind_072.txt.gz
Wind_Speed
10 9 7 9 11 11 11 10 11 14 15 16 18 19 20 21 22 22 22 22 23 24 26 28 29 32 33 34 36 37 39 39 39 37 36 35 33 32 31 31 30 30 29 27
6 6 8 9 9 9 9 8 10 13 13 14 15 17 18 18 19 20 20 21 22 24 26 27 30 32 33 34 34 34 36 38 37 36 35 34 33 32 32 31 29 28 26 25
4 7 8 7 8 8 8 7 9 12 13 13 13 14 15 16 17 18 19 20 22 24 25 27 29 31 32 33 33 34 35 36 36 36 35 35 34 34 34 32 31 29 28 27
6 7 6 6 7 6 7 10 10 11 10 12 11 11 16 15 15 17 18 20 21 23 25 27 29 30 31 32 34 34 35 36 37 37 38 38 37 37 36 36 35 34 33 32
7 7 6 6 7 6 8 9 9 9 9 10 11 9 17 16 17 18 19 20 22 23 25 27 29 31 32 34 35 36 37 38 38 39 40 41 41 41 40 40 40 39 39 38
6 6 7 7 7 7 7 7 7 7 7 9 12 10 16 16 17 18 20 21 23 24 26 28 30 32 34 35 36 37 38 40 41 42 43 43 44 44 44 44 44 44 43 43
5 6 6 6 6 7 6 6 8 8 8 11 15 13 17 17 18 19 21 23 25 26 28 30 32 34 36 37 38 39 41 42 44 45 45 46 46 47 47 48 48 48 48 48
4 6 7 7 7 7 7 7 8 9 10 12 16 14 16 17 18 20 23 25 26 28 30 32 34 36 37 39 40 42 43 44 45 46 47 47 48 48 49 50 51 51 52 52
5 7 7 7 7 7 8 8 9 10 12 11 14 17 16 18 20 22 24 26 28 30 32 34 36 38 39 41 43 44 45 45 46 47 47 48 49 50 51 52 52 53 53 54
6 7 8 8 8 7 8 8 9 10 11 11 14 18 19 19 21 24 26 28 30 32 35 36 38 40 41 43 44 45 46 46 46 47 48 49 50 51 51 52 52 53 53 54
6 7 8 8 8 9 9 9 10 11 12 12 14 19 19 21 23 26 28 30 33 35 37 38 40 42 43 44 45 46 46 46 47 47 47 48 48 49 49 49 50 51 52 53
7 7 8 9 9 9 9 10 11 12 14 14 16 20 20 23 25 28 30 32 34 36 38 40 42 43 44 45 46 46 46 46 47 48 48 48 48 49 49 49 50 50 51 52
7 6 7 9 10 10 11 11 11 12 14 15 16 22 23 25 27 30 32 34 36 38 40 42 43 44 45 46 46 46 46 47 48 49 49 49 49 49 49 49 49 50 51 51
6 5 5 7 10 11 12 12 13 14 15 17 19 22 25 27 29 32 34 35 37 40 42 43 44 45 46 46 46 47 48 48 48 49 49 49 49 50 50 50 50 50 51 51
6 6 7 8 9 11 12 13 14 15 16 18 20 23 25 28 31 33 35 37 39 41 43 45 45 45 46 46 47 47 48 48 49 49 49 49 49 50 50 51 51 50 50 50
7 7 8 9 11 13 13 14 15 17 18 19 21 24 26 29 32 34 37 38 40 42 44 45 46 46 46 47 47 47 47 48 49 49 50 50 50 50 50 50 49 49 48 47
8 8 9 11 13 14 14 15 16 18 19 21 23 25 28 30 33 36 38 40 42 44 45 46 46 46 46 47 48 47 47 49 49 50 50 51 50 49 48 47 46 46 45 45
8 9 11 12 14 14 15 16 17 18 20 22 24 27 29 32 35 38 40 41 43 45 46 47 47 47 47 48 47 47 48 50 50 50 50 49 48 46 45 43 42 40 40 40
10 11 12 14 15 16 16 17 18 18 19 22 25 28 30 33 35 39 41 43 45 47 47 48 48 48 48 48 47 48 49 50 50 50 49 48 46 44 43 40 38 36 35 35
12 13 15 16 17 17 18 18 19 21 21 23 26 29 32 35 37 39 42 44 46 47 48 48 48 48 48 48 48 48 49 50 50 49 48 46 45 43 40 37 34 32 30 30
14 15 15 17 18 19 19 20 21 23 25 26 28 31 34 37 39 42 43 45 47 48 48 48 48 47 48 48 48 48 49 50 49 48 47 45 43 40 37 33 31 29 26 25
15 16 16 17 18 20 20 21 22 23 25 27 29 32 35 37 40 42 45 46 48 48 49 49 47 47 48 48 48 48 49 48 47 47 45 43 41 38 34 31 28 25 22 20
15 16 18 18 19 20 21 22 23 24 26 28 30 33 36 38 40 43 45 47 48 49 49 48 47 46 47 48 47 47 48 47 46 45 43 41 39 36 32 29 25 22 18 15
17 17 18 19 20 21 22 23 24 25 27 28 31 33 36 39 42 44 46 48 48 49 49 48 47 46 47 47 46 46 46 46 45 43 41 39 37 34 30 26 23 19 15 12
19 19 19 20 21 22 22 23 24 26 27 29 31 34 37 40 43 45 47 48 49 49 49 48 46 46 46 45 45 45 44 44 43 42 40 39 36 33 29 25 22 18 14 10
20 20 21 21 22 22 23 24 25 26 28 30 32 35 38 41 43 46 48 49 49 49 49 47 46 45 45 44 43 43 42 42 42 40 39 38 36 33 29 25 21 18 14 10

GEFSCGP_500_meanwind_078.txt.gz
Wind_Speed
7 8 7 6 8 10 11 10 11 11 12 15 15 18 22 20 20 20 20 19 20 21 22 24 25 26 28 29 31 32 34 36 37 39 39 39 40 40 40 40 39 39 38 37
9 9 7 5 7 9 10 11 13 14 17 16 16 20 21 19 18 17 18 18 18 20 21 22 23 25 26 29 31 32 34 35 36 37 39 40 40 40 39 39 39 38 38 37
11 8 6 7 10 10 12 13 14 15 15 16 18 23 23 16 14 13 15 17 18 19 20 21 23 25 27 29 31 33 34 35 37 38 39 40 41 40 41 40 40 39 39 38
10 8 7 8 11 10 11 12 13 15 16 19 21 24 21 18 14 11 13 16 18 19 21 23 25 27 29 30 32 33 35 37 39 40 40 40 41 42 42 42 41 41 40 40
5 6 7 9 10 9 10 11 12 15 19 22 23 22 20 16 13 12 15 17 19 21 22 24 26 28 29 31 33 35 36 38 39 40 41 42 42 43 44 44 44 43 43 42
5 5 6 8 9 9 10 13 14 17 19 20 19 18 16 15 15 15 17 20 22 23 24 26 28 29 31 33 35 36 37 38 39 41 42 43 44 45 45 46 46 46 45 45
4 4 4 7 9 10 9 12 16 18 19 17 13 11 12 13 16 18 20 23 24 25 27 29 30 32 34 35 36 37 38 39 40 42 43 44 45 46 46 47 47 48 48 47
8 8 7 9 9 9 9 11 16 19 22 21 15 14 15 14 16 19 23 25 26 28 30 31 33 34 35 37 38 39 40 41 42 43 44 45 46 46 46 47 48 48 49 48
9 9 8 10 10 11 10 10 12 14 15 18 21 22 18 18 22 24 25 26 28 29 32 33 34 36 37 39 40 41 42 43 43 44 44 44 44 45 45 46 47 47 48 49
10 9 8 10 10 12 12 11 11 12 13 14 21 23 22 22 24 24 25 27 29 31 33 35 36 38 39 40 41 43 44 44 44 44 43 44 44 44 45 45 46 47 47 48
9 9 7 8 10 10 11 12 13 13 12 11 16 24 25 25 24 25 26 28 30 32 34 36 37 39 40 42 43 43 44 44 44 44 44 44 44 44 45 45 46 46 47 48
9 8 9 12 12 8 9 11 12 13 12 11 12 22 25 27 26 26 28 30 32 33 35 37 38 39 41 42 43 44 44 44 45 45 44 44 44 45 46 46 47 48 49 50
9 8 8 13 13 8 10 11 12 12 11 10 11 20 26 27 27 28 29 31 33 35 36 38 39 41 42 43 44 44 44 45 45 45 45 45 46 47 47 48 48 49 50 50
9 8 7 9 11 11 13 13 13 13 12 12 14 19 25 26 27 28 30 32 34 36 38 40 41 42 44 45 45 45 45 46 46 46 46 47 47 48 48 48 49 49 50 49
8 8 7 7 9 10 12 12 13 14 15 15 18 21 25 26 28 29 31 33 35 37 39 41 42 44 45 46 46 46 46 46 46 46 46 47 47 47 48 48 48 48 48 47
9 8 8 7 9 11 12 14 15 17 18 18 20 22 26 27 29 31 32 33 35 37 40 42 43 45 46 47 47 47 46 47 46 46 46 46 47 47 46 47 46 46 45 45
10 9 8 7 9 12 13 15 19 19 19 21 23 24 26 27 30 31 32 34 36 39 41 43 45 46 47 47 48 48 47 47 46 45 45 46 46 46 46 46 45 44 42 41
10 10 10 8 9 13 15 17 19 20 21 22 24 25 27 29 32 34 34 36 38 41 43 45 47 47 47 48 48 48 47 46 45 45 45 45 46 46 45 44 42 41 39 38
12 12 12 11 9 12 18 20 20 22 23 23 23 25 27 28 31 36 37 39 40 42 44 46 48 48 48 49 48 47 46 45 45 44 45 45 46 44 43 42 40 38 37 35
15 14 14 13 13 14 19 21 21 24 27 25 26 27 29 30 31 34 37 38 40 43 45 47 48 48 48 49 48 47 45 45 44 44 45 45 44 43 42 40 38 36 34 33
19 17 15 15 15 17 23 23 24 25 28 28 29 30 30 31 32 34 37 39 41 43 45 48 49 49 48 48 47 46 45 44 43 44 44 44 43 42 40 38 36 34 32 30
18 18 19 19 18 21 25 27 26 26 27 28 29 30 31 32 33 35 37 40 42 44 46 48 48 48 48 48 47 45 44 43 43 43 43 43 43 42 39 37 34 33 31 29
18 18 20 22 23 25 25 27 28 27 27 28 29 30 31 32 34 36 38 41 42 44 46 47 48 48 48 48 47 45 43 43 42 42 42 42 42 41 38 35 33 32 31 28
21 24 22 22 23 27 27 27 27 27 27 28 29 30 31 32 34 36 39 41 43 45 46 47 47 47 47 47 46 44 42 42 41 41 41 42 42 40 37 35 32 31 30 28
22 25 26 25 24 26 27 28 28 28 28 29 30 30 31 33 35 37 39 42 44 45 46 46 46 47 47 46 45 43 41 41 41 40 40 41 41 39 36 34 32 30 28 27
21 23 25 26 27 27 28 28 28 28 28 29 30 31 32 34 36 38 40 43 44 44 45 45 46 47 47 46 45 43 41 40 40 39 39 40 40 37 35 34 32 30 28 25